Presure
125 207 206 209 185 156 202 186 200 189 197 184 194 196 177 186 188 188 199 167 104 104 103 103 105 178 191 105 157 156 155 127 100 103 206 206 162 204 193 184 197 196 205 210
184 191 140 198 206 203 194 198 187 203 204 183 187 197 197 176 191 189 203 193 192 199 192 190 187 193 190 194 188 189 191 188 193 201 201 203 201 204 200 202 194 196 204 201
143 155 203 198 188 201 206 203 194 203 195 203 202 187 189 198 197 194 199 178 191 194 192 191 193 196 192 193 181 192 197 138 192 193 194 199 197 200 203 198 205 205 172 197
249 182 185 196 203 192 208 200 205 185 169 171 186 155 187 191 199 197 191 193 193 186 200 205 211 191 213 134 186 204 190 191 190 192 193 203 214 207 105 82 81 76 215 215
247 243 185 205 208 142 206 132 204 200 195 194 193 206 170 184 189 190 200 207 200 197 194 189 194 210 191 191 194 201 196 192 194 202 201 204 208 91 206 198 196 222 207 234
271 147 173 184 180 209 209 197 200 140 193 190 198 202 188 195 201 205 204 197 199 180 185 187 198 193 200 210 199 196 192 195 199 202 202 204 207 211 211 202 202 201 206 171
308 256 251 207 235 183 206 205 202 210 191 203 192 182 188 209 175 181 189 191 193 185 189 206 209 206 214 208 189 196 195 194 193 200 204 203 221 213 213 215 230 196 184 228
299 280 162 240 186 188 221 215 200 208 191 208 218 210 184 171 189 187 188 180 205 207 199 195 206 211 209 214 192 191 193 190 220 214 211 217 225 204 184 215 226 227 228 231
298 273 261 249 247 242 226 228 227 190 186 184 186 218 210 209 207 195 206 199 206 211 209 215 214 235 232 211 202 199 202 212 209 211 215 218 165 230 248 192 246 242 188 204
266 280 196 192 168 180 210 182 195 231 215 224 228 214 220 204 225 226 222 223 228 233 235 239 197 193 204 206 210 210 211 210 214 209 225 238 241 239 252 227 226 232 242 244
295 266 264 162 263 242 240 168 233 240 207 213 228 226 226 223 218 220 222 221 232 207 190 200 202 217 220 173 210 216 217 226 232 238 246 250 232 227 279 354 336 324 322 308
224 161 187 159 273 266 254 234 246 250 246 240 242 233 231 231 233 248 256 258 267 196 244 219 217 218 221 222 227 238 246 249 254 249 218 227 280 268 338 320 306 296 282 278
237 225 255 252 311 326 304 285 280 276 270 261 223 257 264 272 280 278 269 231 169 173 198 215 221 229 236 257 265 276 261 210 234 287 275 253 252 255 271 322 316 283 287 288
267 219 222 227 228 233 231 234 286 275 274 276 259 278 280 238 198 202 196 194 194 231 260 269 267 267 236 223 215 252 280 272 258 265 274 215 253 253 254 272 278 271 267 252
226 263 321 284 245 229 218 220 226 234 241 258 254 246 256 251 273 268 252 249 230 214 217 216 216 222 276 284 261 264 258 253 261 260 264 272 249 252 247 241 265 259 246 240
223 219 220 220 247 412 345 317 279 254 240 230 224 227 228 230 229 230 233 234 337 319 302 292 278 250 246 245 233 238 235 237 242 260 342 312 267 254 253 243 252 248 232 229
194 212 214 214 216 213 220 215 241 248 259 265 286 267 259 266 259 260 261 265 265 260 252 242 234 230 222 227 214 222 220 218 218 235 253 376 275 265 259 251 248 241 234 230
190 173 184 222 179 192 174 223 214 208 217 212 224 224 228 222 223 212 213 221 220 220 219 221 229 223 219 220 225 216 214 215 214 216 217 232 242 244 248 253 247 243 241 238
198 190 192 202 168 181 218 214 174 194 203 200 199 206 203 201 228 224 212 216 197 212 208 213 211 208 209 205 204 207 206 207 203 204 208 216 221 221 225 228 232 235 237 240
206 181 180 192 207 183 170 219 165 161 223 218 208 202 184 176 178 192 194 198 200 204 199 191 207 211 205 201 204 202 209 210 204 206 205 198 204 201 212 213 214 222 225 227
201 179 197 214 175 210 201 194 207 197 185 166 178 196 207 200 186 183 197 182 188 189 187 188 195 196 187 188 180 180 194 192 194 189 194 193 195 201 204 187 155 206 211 214
172 141 213 217 206 180 180 181 205 217 225 183 208 154 138 169 190 183 207 184 201 196 200 196 206 193 194 201 200 207 203 186 195 197 198 207 183 188 194 188 195 210 201 203
173 152 215 141 194 153 207 206 210 202 149 202 223 226 182 207 218 200 185 196 188 181 188 203 220 206 222 215 189 188 202 225 221 195 205 197 189 181 190 193 194 196 189 189
224 158 202 223 189 152 176 215 195 201 198 196 168 183 204 221 192 218 212 214 215 207 222 205 212 186 205 216 216 220 215 208 226 226 223 160 226 224 214 216 231 226 221 201
228 234 220 237 239 240 229 214 220 220 220 210 218 203 199 191 211 223 213 223 199 203 184 188 212 209 222 220 199 195 205 210 212 216 208 217 216 217 230 226 209 208 212 214
226 225 230 229 224 231 225 237 231 225 228 225 215 223 217 219 213 224 224 221 217 215 215 212 205 220 228 232 233 225 208 209 205 206 223 214 209 209 211 199 197 222 225 224
Wind_Speed
29 94 91 86 58 59 81 75 81 76 76 66 68 66 62 65 65 64 63 63 63 62 61 58 59 67 66 60 76 75 74 66 58 62 68 69 77 72 76 76 75 75 73 71
68 78 35 83 87 85 82 75 72 77 74 63 64 65 64 60 65 64 62 63 62 62 62 63 65 64 67 66 70 71 70 74 73 69 70 71 74 73 74 73 76 72 74 71
41 54 88 83 74 83 83 81 76 76 66 69 67 61 64 66 65 62 61 54 61 60 61 61 62 62 63 66 58 68 68 49 75 75 75 75 76 77 76 77 76 75 61 75
102 62 68 77 85 60 84 77 78 58 40 44 59 54 61 63 67 63 61 62 61 60 59 58 62 65 70 46 73 63 74 74 76 76 77 77 73 76 33 23 25 29 78 77
98 98 52 79 86 41 81 34 75 71 61 61 59 68 53 58 56 56 62 66 60 57 54 58 58 65 69 71 68 64 72 76 78 77 75 77 76 35 77 77 79 75 79 70
93 44 58 60 60 82 82 58 65 40 57 50 60 64 57 61 68 70 67 56 62 62 60 62 64 64 66 68 67 70 74 76 78 79 79 78 78 77 78 78 79 77 71 66
79 96 99 76 95 38 74 72 67 79 51 68 54 43 57 72 59 57 53 56 59 64 65 73 75 71 78 69 72 72 75 78 79 80 80 80 79 79 78 79 79 72 70 79
76 95 45 91 63 64 87 84 57 69 38 72 78 65 47 55 51 54 58 66 75 75 66 66 73 71 67 74 73 76 77 76 73 78 81 80 80 78 73 79 81 82 80 79
59 78 95 90 91 91 81 86 86 40 32 36 44 76 76 77 77 68 76 70 71 76 78 81 75 82 77 66 74 76 75 76 79 80 80 82 66 82 82 74 83 83 72 76
32 71 45 47 34 40 51 36 27 84 66 73 77 68 78 74 80 77 73 72 74 77 77 77 69 71 72 72 71 72 75 77 77 78 80 83 84 83 84 75 78 81 83 82
27 39 64 22 77 71 72 43 72 78 63 67 75 75 76 71 67 67 69 67 75 70 66 68 69 68 64 60 69 72 74 76 77 79 81 83 81 82 71 27 27 28 30 31
6 22 22 19 63 68 68 61 69 73 75 72 75 73 77 76 73 71 69 70 70 65 59 64 65 65 67 68 70 74 76 76 77 76 71 75 56 59 36 29 25 24 24 25
6 6 5 10 26 37 59 64 61 63 63 64 57 67 69 67 62 58 54 58 55 58 61 62 62 65 67 66 67 68 65 66 65 51 50 51 57 51 38 21 17 17 16 15
6 7 8 10 14 17 21 23 37 37 42 47 45 50 50 49 54 59 54 59 61 58 57 57 57 56 57 58 60 50 42 46 49 46 45 47 46 43 34 28 11 9 9 9
15 11 9 12 14 18 24 25 27 29 30 32 40 40 40 42 44 43 45 47 50 53 53 53 54 55 36 27 31 26 28 32 34 38 40 40 39 36 31 31 20 11 8 13
16 11 9 5 9 15 17 21 26 28 29 33 37 38 41 40 43 45 48 50 17 18 21 24 27 26 24 22 30 26 29 30 32 37 44 39 30 30 27 27 23 17 18 19
9 10 10 9 7 7 9 10 5 4 7 11 13 14 16 18 19 21 21 21 20 19 18 20 23 23 29 25 35 30 33 34 35 32 31 27 22 22 23 23 23 23 24 26
17 16 16 11 15 16 19 13 15 17 17 19 17 18 17 22 23 26 26 24 24 25 26 26 23 26 28 28 27 31 33 32 34 31 32 26 23 22 23 23 23 24 27 30
20 23 25 21 26 24 18 20 25 25 27 25 25 26 28 28 21 24 26 26 32 29 31 30 32 34 33 37 40 38 36 38 39 37 34 31 29 26 23 23 23 25 28 30
26 31 27 30 29 33 33 23 34 35 24 30 35 35 33 34 33 35 34 35 36 36 37 38 38 36 39 40 42 42 41 40 44 42 39 38 38 35 31 31 30 27 28 29
30 36 36 37 37 31 33 40 34 36 37 37 36 39 40 42 42 37 44 41 43 41 43 45 48 46 42 46 42 43 47 45 43 44 44 41 41 42 41 40 41 37 36 35
49 35 50 47 42 41 39 39 41 42 44 47 43 44 40 43 45 44 49 47 51 52 53 57 58 53 53 57 58 59 58 51 54 54 50 49 46 47 48 44 43 44 44 44
50 40 56 30 45 36 49 46 49 52 40 44 48 52 56 44 48 54 55 58 53 52 56 62 59 64 56 59 58 58 67 60 59 58 61 60 56 51 54 54 54 53 49 50
63 52 63 61 51 56 54 54 56 52 51 50 48 51 52 54 62 53 54 55 54 54 57 56 60 60 64 60 59 60 60 61 58 60 60 53 55 55 57 56 53 54 56 60
69 69 66 71 70 68 65 58 61 63 63 63 63 61 60 60 60 60 59 64 71 68 65 68 65 65 67 67 70 69 69 67 67 67 72 65 66 64 60 62 65 65 65 64
77 76 74 74 73 71 68 72 72 71 75 73 71 72 71 66 63 67 67 65 65 66 65 68 72 66 67 69 71 72 74 73 74 76 72 75 76 76 75 72 62 71 70 71
Wind_Direction
230 216 217 219 221 228 226 230 231 233 234 237 240 243 243 245 245 248 252 254 257 257 260 260 261 268 271 268 267 270 274 272 264 268 283 283 283 285 286 287 290 291 293 293
215 218 226 221 221 222 225 228 232 234 236 239 242 244 247 248 249 251 254 253 256 259 258 260 264 267 268 270 271 274 277 277 279 282 283 283 284 284 286 288 289 290 292 292
226 218 219 223 226 223 224 226 231 233 237 238 241 245 249 253 252 253 257 259 257 258 259 261 266 267 267 268 271 272 275 276 278 281 283 283 284 284 286 287 288 289 289 292
203 209 220 221 222 232 223 227 230 237 231 235 240 243 248 252 254 255 254 257 259 257 267 272 276 264 277 271 267 274 271 275 278 280 281 281 283 283 278 275 261 268 288 289
204 203 208 219 221 234 227 236 231 233 237 239 242 244 244 251 255 256 261 263 261 264 264 263 268 278 264 265 267 272 272 275 277 279 279 280 281 276 283 285 287 285 291 288
198 218 212 213 227 226 230 240 237 247 239 244 243 245 253 253 256 259 263 260 262 252 257 260 271 264 271 278 271 270 273 275 276 278 280 282 283 283 284 285 289 291 287 283
186 205 208 214 216 227 234 236 241 237 242 241 244 246 249 254 250 257 256 259 261 253 261 276 276 277 281 276 269 271 271 274 277 280 281 281 283 282 286 287 288 285 285 290
193 198 217 213 221 226 225 229 236 240 239 242 245 249 247 253 255 250 253 250 267 270 269 264 273 279 277 274 268 271 272 278 283 280 281 284 285 285 283 288 286 286 286 286
196 202 209 215 218 222 227 230 234 228 232 234 243 251 255 256 259 263 263 261 270 270 270 273 277 278 276 274 271 273 277 278 279 282 285 286 280 287 286 284 284 284 284 285
203 204 217 224 222 210 223 220 228 240 243 247 249 251 255 253 262 265 267 271 271 271 272 274 266 266 268 270 274 275 277 280 283 285 287 288 290 291 292 287 285 285 284 282
215 213 220 259 224 230 234 247 240 243 249 250 250 255 259 261 263 264 267 268 269 264 265 269 267 270 276 276 276 277 281 285 287 288 291 293 293 293 295 283 274 270 265 265
147 214 233 252 236 237 239 244 246 248 251 254 256 257 259 260 262 268 270 271 272 274 275 269 273 276 279 282 285 286 287 287 288 289 293 293 295 297 312 296 283 269 262 264
79 195 183 220 235 239 242 247 253 255 256 257 258 257 260 264 267 269 268 266 271 271 272 276 278 280 282 286 287 289 290 288 290 290 289 292 294 302 321 303 295 274 274 263
355 226 236 246 248 245 245 246 244 243 244 246 251 255 257 260 261 263 270 268 269 275 280 281 283 284 284 284 285 287 290 290 292 294 290 301 296 303 308 319 300 284 242 241
45 30 268 282 262 243 242 246 249 251 256 258 259 265 269 269 270 277 274 274 272 272 274 276 278 282 280 282 285 295 298 300 308 302 297 292 294 297 297 307 303 270 251 259
29 29 30 18 28 252 255 260 268 271 265 261 260 264 265 267 266 269 271 273 268 269 263 264 267 273 274 278 284 294 298 305 315 324 295 283 283 290 289 297 298 281 296 283
328 357 339 328 324 298 311 266 307 284 280 268 262 259 263 262 263 262 264 264 265 263 263 264 270 272 277 279 284 288 292 296 298 320 331 276 283 292 301 301 302 298 294 292
302 259 289 328 262 281 270 290 286 277 287 279 273 272 274 273 273 277 278 280 277 275 275 274 270 271 277 280 283 284 288 292 296 304 308 326 334 333 327 313 307 300 292 291
280 275 294 275 257 268 291 287 271 277 280 275 277 278 279 280 262 263 273 271 279 271 276 269 272 275 274 278 282 285 286 288 289 293 298 307 309 310 316 317 318 314 308 304
302 276 279 273 296 282 258 294 263 266 273 270 276 280 277 273 276 282 282 280 279 275 280 285 276 271 278 280 282 286 284 283 288 291 293 292 296 294 298 299 298 303 303 303
282 277 287 305 274 283 271 270 287 277 266 266 269 271 268 274 279 277 277 279 281 272 280 283 285 281 281 282 282 283 284 288 288 288 292 291 292 293 292 288 286 292 292 291
292 277 297 298 282 283 283 281 281 290 290 274 279 274 279 273 270 275 269 273 272 277 275 280 274 279 281 279 280 280 281 284 287 288 284 285 286 287 289 288 288 285 288 287
290 274 290 275 264 274 287 282 291 283 268 270 286 280 274 261 274 264 278 274 278 277 279 271 268 269 273 273 282 282 282 278 279 285 279 286 286 285 288 288 288 287 286 287
284 290 284 288 282 288 269 283 280 282 280 272 281 268 261 278 270 272 272 272 271 270 275 272 266 279 272 271 271 275 279 282 282 279 278 282 276 276 278 279 279 277 276 284
283 281 282 278 277 278 282 277 281 281 281 275 281 267 263 284 281 278 265 277 263 272 273 272 277 278 275 274 275 276 274 275 277 278 280 280 280 282 280 275 275 277 277 276
282 282 280 279 282 280 280 275 276 277 278 278 275 279 275 275 268 276 276 273 270 270 271 271 269 275 279 279 277 273 271 272 273 274 271 273 276 277 277 283 281 275 274 271